Time,TemperatureF,DewpointF,PressureIn,WindDirection,WindDirectionDegrees,WindSpeedMPH,WindSpeedGustMPH,Humidity,HourlyPrecipIn,Conditions,Clouds,dailyrainin,SoftwareType,DateUTC
2013-07-22 00:05:00,65.3,65.3,29.96,NE,45,0.0,0.0,100,0.00,,,0.00,Wunderground v.1.15,2013-07-22 04:05:00,
2013-07-22 00:10:00,65.3,65.3,29.96,NE,45,0.0,0.0,100,0.00,,,0.00,Wunderground v.1.15,2013-07-22 04:10:00,
2013-07-22 00:15:00,65.3,65.3,29.96,NE,45,0.0,0.0,100,0.00,,,0.00,Wunderground v.1.15,2013-07-22 04:15:00,
2013-07-22 00:25:00,65.5,65.5,29.95,NE,45,1.0,1.0,100,0.00,,,0.00,Wunderground v.1.15,2013-07-22 04:25:00,
2013-07-22 00:34:00,65.8,65.8,29.96,NE,45,1.0,2.0,100,0.00,,,0.00,Wunderground v.1.15,2013-07-22 04:34:00,
2013-07-22 00:40:00,66.0,66.0,29.96,NE,45,1.0,1.0,100,0.00,,,0.00,Wunderground v.1.15,2013-07-22 04:40:00,
2013-07-22 00:50:00,66.0,66.0,29.96,NE,45,0.0,0.0,100,0.00,,,0.00,Wunderground v.1.15,2013-07-22 04:50:00,
2013-07-22 00:55:00,66.1,66.1,29.96,NE,45,0.0,0.0,100,0.00,,,0.00,Wunderground v.1.15,2013-07-22 04:55:00,
2013-07-22 01:04:00,66.1,66.1,29.95,NE,45,1.0,1.0,100,0.00,,,0.00,Wunderground v.1.15,2013-07-22 05:04:00,
2013-07-22 01:10:00,66.3,66.3,29.95,NE,45,1.0,1.0,100,0.00,,,0.00,Wunderground v.1.15,2013-07-22 05:10:00,
2013-07-22 01:20:00,66.3,66.3,29.95,NE,45,1.0,1.0,100,0.00,,,0.00,Wunderground v.1.15,2013-07-22 05:20:00,
2013-07-22 01:25:00,66.4,66.4,29.95,NE,45,0.0,1.0,100,0.00,,,0.00,Wunderground v.1.15,2013-07-22 05:25:00,
2013-07-22 01:35:00,66.4,66.4,29.95,NE,45,0.0,0.0,100,0.00,,,0.00,Wunderground v.1.15,2013-07-22 05:35:00,
2013-07-22 01:40:00,66.4,66.4,29.95,NE,45,0.0,0.0,100,0.00,,,0.00,Wunderground v.1.15,2013-07-22 05:40:00,
2013-07-22 01:49:00,66.6,66.6,29.95,NE,45,0.0,0.0,100,0.00,,,0.00,Wunderground v.1.15,2013-07-22 05:49:00,
2013-07-22 01:55:00,66.6,66.6,29.95,NE,45,0.0,1.0,100,0.00,,,0.00,Wunderground v.1.15,2013-07-22 05:55:00,
2013-07-22 02:05:00,66.8,66.8,29.95,NE,45,0.0,0.0,100,0.00,,,0.00,Wunderground v.1.15,2013-07-22 06:05:00,
2013-07-22 02:10:00,66.9,66.9,29.95,NE,45,0.0,0.0,100,0.00,,,0.00,Wunderground v.1.15,2013-07-22 06:10:00,
2013-07-22 02:20:00,66.9,66.9,29.94,NE,45,0.0,0.0,100,0.00,,,0.00,Wunderground v.1.15,2013-07-22 06:20:00,
2013-07-22 02:25:00,66.9,66.9,29.94,NE,45,0.0,0.0,100,0.00,,,0.00,Wunderground v.1.15,2013-07-22 06:25:00,
2013-07-22 02:34:00,66.9,66.9,29.94,NE,45,0.0,0.0,100,0.00,,,0.00,Wunderground v.1.15,2013-07-22 06:34:00,
2013-07-22 02:40:00,66.9,66.9,29.94,NE,45,0.0,0.0,100,0.00,,,0.00,Wunderground v.1.15,2013-07-22 06:40:00,
2013-07-22 02:50:00,67.1,67.1,29.94,NE,45,1.0,1.0,100,0.00,,,0.00,Wunderground v.1.15,2013-07-22 06:50:00,
2013-07-22 02:55:00,67.1,67.1,29.94,NE,45,0.0,1.0,100,0.00,,,0.00,Wunderground v.1.15,2013-07-22 06:55:00,
2013-07-22 03:05:00,67.3,67.3,29.95,NE,45,0.0,0.0,100,0.00,,,0.00,Wunderground v.1.15,2013-07-22 07:05:00,
2013-07-22 03:10:00,67.3,67.3,29.95,NE,45,0.0,0.0,100,0.00,,,0.00,Wunderground v.1.15,2013-07-22 07:10:00,
2013-07-22 03:20:00,67.3,67.3,29.95,NE,45,0.0,0.0,100,0.00,,,0.00,Wunderground v.1.15,2013-07-22 07:20:00,
2013-07-22 03:25:00,67.3,67.3,29.95,NE,45,0.0,0.0,100,0.00,,,0.00,Wunderground v.1.15,2013-07-22 07:25:00,
2013-07-22 03:35:00,67.3,67.3,29.95,NE,45,0.0,0.0,100,0.00,,,0.00,Wunderground v.1.15,2013-07-22 07:35:00,
2013-07-22 03:40:00,67.4,67.4,29.95,NE,45,0.0,0.0,100,0.00,,,0.00,Wunderground v.1.15,2013-07-22 07:40:00,
2013-07-22 03:50:00,67.4,67.4,29.94,NE,45,0.0,0.0,100,0.00,,,0.00,Wunderground v.1.15,2013-07-22 07:50:00,
2013-07-22 03:55:00,67.6,67.6,29.94,NE,45,0.0,0.0,100,0.00,,,0.00,Wunderground v.1.15,2013-07-22 07:55:00,
2013-07-22 04:04:00,67.4,67.4,29.94,NE,45,0.0,0.0,100,0.00,,,0.00,Wunderground v.1.15,2013-07-22 08:04:00,
2013-07-22 04:10:00,67.4,67.4,29.94,NE,45,0.0,0.0,100,0.00,,,0.00,Wunderground v.1.15,2013-07-22 08:10:00,
2013-07-22 04:20:00,67.4,67.4,29.94,NE,45,0.0,0.0,100,0.00,,,0.00,Wunderground v.1.15,2013-07-22 08:20:00,
2013-07-22 04:25:00,67.6,67.6,29.94,NE,45,0.0,0.0,100,0.00,,,0.00,Wunderground v.1.15,2013-07-22 08:25:00,
2013-07-22 04:34:00,67.4,67.4,29.94,NE,45,0.0,0.0,100,0.00,,,0.00,Wunderground v.1.15,2013-07-22 08:34:00,
2013-07-22 04:40:00,67.4,67.4,29.94,NE,45,0.0,0.0,100,0.00,,,0.00,Wunderground v.1.15,2013-07-22 08:40:00,
2013-07-22 04:50:00,67.4,67.4,29.94,NE,45,0.0,0.0,100,0.00,,,0.00,Wunderground v.1.15,2013-07-22 08:50:00,
2013-07-22 04:55:00,67.4,67.4,29.94,NE,45,0.0,0.0,100,0.00,,,0.00,Wunderground v.1.15,2013-07-22 08:55:00,
2013-07-22 05:05:00,67.4,67.4,29.94,NE,45,0.0,0.0,100,0.00,,,0.00,Wunderground v.1.15,2013-07-22 09:05:00,
2013-07-22 05:10:00,67.4,67.4,29.94,NE,45,0.0,1.0,100,0.00,,,0.00,Wunderground v.1.15,2013-07-22 09:10:00,
2013-07-22 05:20:00,67.4,67.4,29.94,NE,45,1.0,1.0,100,0.00,,,0.00,Wunderground v.1.15,2013-07-22 09:20:00,
2013-07-22 05:25:00,67.6,67.6,29.94,NE,45,1.0,1.0,100,0.00,,,0.00,Wunderground v.1.15,2013-07-22 09:25:00,
2013-07-22 05:35:00,67.8,67.8,29.94,NE,45,2.0,2.0,100,0.00,,,0.00,Wunderground v.1.15,2013-07-22 09:35:00,
2013-07-22 05:40:00,67.8,67.8,29.94,NE,45,2.0,3.0,100,0.00,,,0.00,Wunderground v.1.15,2013-07-22 09:40:00,
2013-07-22 05:50:00,68.1,68.1,29.95,NE,45,2.0,2.0,100,0.00,,,0.00,Wunderground v.1.15,2013-07-22 09:50:00,
2013-07-22 05:55:00,68.1,68.1,29.95,NE,45,2.0,2.0,100,0.00,,,0.00,Wunderground v.1.15,2013-07-22 09:55:00,
2013-07-22 06:05:00,68.1,68.1,29.95,NE,45,3.0,7.0,100,0.00,,,0.00,Wunderground v.1.15,2013-07-22 10:05:00,
2013-07-22 06:10:00,68.1,68.1,29.95,NE,45,3.0,3.0,100,0.00,,,0.00,Wunderground v.1.15,2013-07-22 10:10:00,
2013-07-22 06:19:00,67.9,67.9,29.94,NE,45,3.0,3.0,100,0.00,,,0.00,Wunderground v.1.15,2013-07-22 10:19:00,
2013-07-22 06:25:00,67.9,67.9,29.94,NE,45,4.0,4.0,100,0.00,,,0.00,Wunderground v.1.15,2013-07-22 10:25:00,
2013-07-22 06:35:00,67.9,67.9,29.94,NE,45,2.0,4.0,100,0.00,,,0.00,Wunderground v.1.15,2013-07-22 10:35:00,
2013-07-22 06:40:00,68.1,68.1,29.94,NE,45,1.0,2.0,100,0.00,,,0.00,Wunderground v.1.15,2013-07-22 10:40:00,
2013-07-22 06:50:00,68.4,68.4,29.94,NE,45,1.0,3.0,100,0.00,,,0.00,Wunderground v.1.15,2013-07-22 10:50:00,
2013-07-22 06:55:00,68.4,68.4,29.94,NE,45,0.0,3.0,100,0.00,,,0.00,Wunderground v.1.15,2013-07-22 10:55:00,
2013-07-22 07:04:00,68.4,68.4,29.94,NE,45,1.0,2.0,100,0.00,,,0.00,Wunderground v.1.15,2013-07-22 11:04:00,
2013-07-22 07:10:00,68.4,68.4,29.94,NE,45,2.0,2.0,100,0.00,,,0.00,Wunderground v.1.15,2013-07-22 11:10:00,
2013-07-22 07:20:00,68.4,68.4,29.94,NE,45,3.0,3.0,100,0.00,,,0.00,Wunderground v.1.15,2013-07-22 11:20:00,
2013-07-22 07:25:00,68.4,68.4,29.94,NE,45,2.0,3.0,100,0.00,,,0.00,Wunderground v.1.15,2013-07-22 11:25:00,
2013-07-22 07:35:00,68.6,68.6,29.95,NE,45,1.0,2.0,100,0.00,,,0.00,Wunderground v.1.15,2013-07-22 11:35:00,
2013-07-22 07:40:00,68.8,68.8,29.95,NE,45,1.0,1.0,100,0.00,,,0.00,Wunderground v.1.15,2013-07-22 11:40:00,
2013-07-22 07:50:00,68.9,68.9,29.95,NE,45,1.0,1.0,100,0.00,,,0.00,Wunderground v.1.15,2013-07-22 11:50:00,
2013-07-22 07:55:00,68.9,68.9,29.95,NE,45,2.0,3.0,100,0.00,,,0.00,Wunderground v.1.15,2013-07-22 11:55:00,
2013-07-22 08:05:00,69.1,69.1,29.97,NE,45,2.0,2.0,100,0.00,,,0.00,Wunderground v.1.15,2013-07-22 12:05:00,
2013-07-22 08:10:00,69.1,69.1,29.97,NE,45,1.0,1.0,100,0.00,,,0.00,Wunderground v.1.15,2013-07-22 12:10:00,
2013-07-22 08:20:00,69.1,69.1,29.97,NE,45,1.0,1.0,100,0.00,,,0.00,Wunderground v.1.15,2013-07-22 12:20:00,
2013-07-22 08:25:00,69.1,69.1,29.97,NE,45,1.0,2.0,100,0.00,,,0.00,Wunderground v.1.15,2013-07-22 12:25:00,
2013-07-22 08:35:00,69.4,69.4,29.97,NE,45,1.0,1.0,100,0.00,,,0.00,Wunderground v.1.15,2013-07-22 12:35:00,
2013-07-22 08:40:00,69.6,69.6,29.97,NE,45,1.0,1.0,100,0.00,,,0.00,Wunderground v.1.15,2013-07-22 12:40:00,
2013-07-22 08:49:00,69.8,69.8,29.97,NE,45,1.0,1.0,100,0.00,,,0.00,Wunderground v.1.15,2013-07-22 12:49:00,
2013-07-22 08:55:00,69.8,69.8,29.97,NE,45,1.0,1.0,100,0.00,,,0.00,Wunderground v.1.15,2013-07-22 12:55:00,
2013-07-22 09:05:00,69.9,69.9,29.97,NE,45,2.0,2.0,100,0.00,,,0.00,Wunderground v.1.15,2013-07-22 13:05:00,
2013-07-22 09:10:00,70.1,70.1,29.97,NE,45,2.0,2.0,100,0.00,,,0.00,Wunderground v.1.15,2013-07-22 13:10:00,
2013-07-22 09:20:00,70.3,70.3,29.97,NE,45,2.0,2.0,100,0.00,,,0.00,Wunderground v.1.15,2013-07-22 13:20:00,
2013-07-22 09:25:00,70.3,70.3,29.97,NE,45,2.0,2.0,100,0.00,,,0.00,Wunderground v.1.15,2013-07-22 13:25:00,
2013-07-22 09:34:00,70.4,70.4,29.97,NE,45,1.0,1.0,100,0.00,,,0.00,Wunderground v.1.15,2013-07-22 13:34:00,
2013-07-22 09:40:00,70.3,70.3,29.97,NE,45,2.0,2.0,100,0.00,,,0.00,Wunderground v.1.15,2013-07-22 13:40:00,
2013-07-22 09:50:00,70.4,70.4,29.97,NE,45,2.0,2.0,100,0.00,,,0.00,Wunderground v.1.15,2013-07-22 13:50:00,
2013-07-22 09:55:00,70.6,70.6,29.97,NE,45,2.0,2.0,100,0.00,,,0.00,Wunderground v.1.15,2013-07-22 13:55:00,
2013-07-22 10:05:00,70.9,70.9,29.97,NE,45,1.0,2.0,100,0.00,,,0.00,Wunderground v.1.15,2013-07-22 14:05:00,
2013-07-22 10:10:00,70.9,70.9,29.97,NE,45,1.0,4.0,100,0.00,,,0.00,Wunderground v.1.15,2013-07-22 14:10:00,
2013-07-22 10:20:00,70.9,70.9,29.97,NE,45,2.0,3.0,100,0.00,,,0.00,Wunderground v.1.15,2013-07-22 14:20:00,
2013-07-22 10:25:00,70.8,70.8,29.97,NE,45,2.0,6.0,100,0.00,,,0.00,Wunderground v.1.15,2013-07-22 14:25:00,
2013-07-22 10:34:00,70.3,70.3,29.97,NE,45,3.0,3.0,100,0.00,,,0.00,Wunderground v.1.15,2013-07-22 14:34:00,
2013-07-22 10:40:00,70.8,70.8,29.97,NE,45,3.0,6.0,100,0.00,,,0.00,Wunderground v.1.15,2013-07-22 14:40:00,
2013-07-22 10:50:00,70.6,70.6,29.97,NE,45,4.0,4.0,100,0.00,,,0.00,Wunderground v.1.15,2013-07-22 14:50:00,
2013-07-22 10:55:00,70.9,70.9,29.97,NE,45,3.0,4.0,100,0.00,,,0.00,Wunderground v.1.15,2013-07-22 14:55:00,
2013-07-22 11:05:00,70.8,70.8,29.98,NE,45,3.0,6.0,100,0.00,,,0.00,Wunderground v.1.15,2013-07-22 15:05:00,
2013-07-22 11:10:00,70.4,70.4,29.98,NE,45,3.0,5.0,100,0.00,,,0.00,Wunderground v.1.15,2013-07-22 15:10:00,
2013-07-22 11:19:00,69.6,69.6,29.97,NE,45,4.0,4.0,100,0.00,,,0.00,Wunderground v.1.15,2013-07-22 15:19:00,
2013-07-22 11:25:00,69.6,69.6,29.97,NE,45,3.0,4.0,100,0.00,,,0.00,Wunderground v.1.15,2013-07-22 15:25:00,
2013-07-22 11:35:00,68.9,68.9,29.98,NE,45,3.0,4.0,100,0.00,,,0.00,Wunderground v.1.15,2013-07-22 15:35:00,
2013-07-22 11:40:00,69.3,69.3,29.98,NE,45,3.0,3.0,100,0.00,,,0.00,Wunderground v.1.15,2013-07-22 15:40:00,
2013-07-22 11:50:00,70.1,70.1,29.97,NE,45,4.0,4.0,100,0.00,,,0.00,Wunderground v.1.15,2013-07-22 15:50:00,
2013-07-22 11:55:00,70.4,70.4,29.97,NE,45,3.0,4.0,100,0.00,,,0.00,Wunderground v.1.15,2013-07-22 15:55:00,
2013-07-22 12:04:00,71.1,71.1,29.97,NE,45,3.0,3.0,100,0.00,,,0.00,Wunderground v.1.15,2013-07-22 16:04:00,
2013-07-22 12:10:00,71.3,71.3,29.97,NE,45,2.0,2.0,100,0.00,,,0.00,Wunderground v.1.15,2013-07-22 16:10:00,
2013-07-22 12:20:00,72.1,72.1,29.97,NE,45,3.0,3.0,100,0.00,,,0.00,Wunderground v.1.15,2013-07-22 16:20:00,
2013-07-22 12:25:00,72.5,72.5,29.97,NE,45,2.0,4.0,100,0.00,,,0.00,Wunderground v.1.15,2013-07-22 16:25:00,
2013-07-22 12:35:00,72.7,72.7,29.97,NE,45,2.0,2.0,100,0.00,,,0.00,Wunderground v.1.15,2013-07-22 16:35:00,
2013-07-22 12:40:00,73.2,73.2,29.97,NE,45,3.0,7.0,100,0.00,,,0.00,Wunderground v.1.15,2013-07-22 16:40:00,
2013-07-22 12:49:00,73.9,73.9,29.95,NE,45,3.0,3.0,100,0.00,,,0.00,Wunderground v.1.15,2013-07-22 16:49:00,
2013-07-22 12:55:00,73.2,73.2,29.95,NE,45,3.0,3.0,100,0.00,,,0.00,Wunderground v.1.15,2013-07-22 16:55:00,
2013-07-22 13:04:00,73.3,73.3,29.95,NE,45,3.0,5.0,100,0.00,,,0.00,Wunderground v.1.15,2013-07-22 17:04:00,
2013-07-22 13:10:00,73.3,73.3,29.95,NE,45,3.0,4.0,100,0.00,,,0.00,Wunderground v.1.15,2013-07-22 17:10:00,
2013-07-22 13:20:00,73.2,73.2,29.95,NE,45,4.0,4.0,100,0.00,,,0.00,Wunderground v.1.15,2013-07-22 17:20:00,
2013-07-22 13:25:00,73.5,73.5,29.95,NE,45,4.0,4.0,100,0.00,,,0.00,Wunderground v.1.15,2013-07-22 17:25:00,
2013-07-22 13:35:00,73.0,73.0,29.94,NE,45,4.0,8.0,100,0.00,,,0.00,Wunderground v.1.15,2013-07-22 17:35:00,
2013-07-22 13:40:00,72.7,72.7,29.94,NE,45,3.0,4.0,100,0.00,,,0.00,Wunderground v.1.15,2013-07-22 17:40:00,
2013-07-22 13:49:00,73.5,73.5,29.94,NE,45,4.0,8.0,100,0.00,,,0.00,Wunderground v.1.15,2013-07-22 17:49:00,
2013-07-22 14:00:00,73.7,73.7,29.94,NE,45,4.0,6.0,100,0.00,,,0.00,Wunderground v.1.15,2013-07-22 18:00:00,
2013-07-22 14:10:00,73.9,73.9,29.94,NE,45,3.0,3.0,100,0.00,,,0.00,Wunderground v.1.15,2013-07-22 18:10:00,
2013-07-22 14:20:00,73.7,73.7,29.94,NE,45,4.0,4.0,100,0.00,,,0.00,Wunderground v.1.15,2013-07-22 18:20:00,
2013-07-22 14:25:00,73.3,73.3,29.94,NE,45,4.0,4.0,100,0.00,,,0.00,Wunderground v.1.15,2013-07-22 18:25:00,
2013-07-22 14:34:00,73.0,73.0,29.94,NE,45,4.0,7.0,100,0.00,,,0.00,Wunderground v.1.15,2013-07-22 18:34:00,
2013-07-22 14:40:00,72.7,72.7,29.94,NE,45,5.0,6.0,100,0.00,,,0.00,Wunderground v.1.15,2013-07-22 18:40:00,
2013-07-22 14:50:00,73.0,73.0,29.93,NE,45,4.0,7.0,100,0.00,,,0.00,Wunderground v.1.15,2013-07-22 18:50:00,
2013-07-22 14:55:00,72.8,72.8,29.93,NE,45,5.0,7.0,100,0.00,,,0.00,Wunderground v.1.15,2013-07-22 18:55:00,
2013-07-22 15:04:00,72.7,72.7,29.93,NE,45,5.0,6.0,100,0.00,,,0.00,Wunderground v.1.15,2013-07-22 19:04:00,
2013-07-22 15:10:00,72.5,72.5,29.93,NE,45,5.0,5.0,100,0.00,,,0.00,Wunderground v.1.15,2013-07-22 19:10:00,
2013-07-22 15:19:00,72.3,72.3,29.93,NE,45,5.0,6.0,100,0.00,,,0.00,Wunderground v.1.15,2013-07-22 19:19:00,
2013-07-22 15:30:00,72.0,72.0,29.93,NE,45,4.0,4.0,100,0.00,,,0.00,Wunderground v.1.15,2013-07-22 19:30:00,
2013-07-22 15:40:00,71.3,71.3,29.92,NE,45,5.0,8.0,100,0.00,,,0.00,Wunderground v.1.15,2013-07-22 19:40:00,
2013-07-22 15:50:00,70.8,70.8,29.92,NE,45,4.0,4.0,100,0.00,,,0.00,Wunderground v.1.15,2013-07-22 19:50:00,
2013-07-22 15:55:00,70.8,70.8,29.92,NE,55,4.0,4.0,100,0.00,,,0.00,Wunderground v.1.15,2013-07-22 19:55:00,
2013-07-22 16:04:00,70.6,70.6,29.92,NE,55,4.0,4.0,100,0.00,,,0.00,Wunderground v.1.15,2013-07-22 20:04:00,
2013-07-22 16:10:00,70.6,70.6,29.92,NE,55,4.0,4.0,100,0.00,,,0.00,Wunderground v.1.15,2013-07-22 20:10:00,
2013-07-22 16:20:00,70.8,70.8,29.92,ENE,58,5.0,5.0,100,0.00,,,0.00,Wunderground v.1.15,2013-07-22 20:20:00,
2013-07-22 16:25:00,70.6,70.6,29.92,ENE,58,4.0,5.0,100,0.00,,,0.00,Wunderground v.1.15,2013-07-22 20:25:00,
2013-07-22 16:30:00,70.6,70.6,29.92,ENE,58,3.0,3.0,100,0.00,,,0.00,Wunderground v.1.15,2013-07-22 20:30:00,
2013-07-22 16:35:00,70.4,70.4,29.91,ENE,58,3.0,3.0,100,0.00,,,0.00,Wunderground v.1.15,2013-07-22 20:35:00,
2013-07-22 16:40:00,70.3,70.3,29.91,ENE,58,3.0,3.0,100,0.00,,,0.00,Wunderground v.1.15,2013-07-22 20:40:00,
2013-07-22 16:49:00,70.1,70.1,29.91,ENE,58,3.0,3.0,100,0.00,,,0.00,Wunderground v.1.15,2013-07-22 20:49:00,
2013-07-22 16:55:00,69.9,69.9,29.91,ENE,58,3.0,6.0,100,0.00,,,0.00,Wunderground v.1.15,2013-07-22 20:55:00,
2013-07-22 17:00:00,69.8,69.8,29.91,ENE,58,3.0,3.0,100,0.00,,,0.00,Wunderground v.1.15,2013-07-22 21:00:00,
2013-07-22 17:10:00,69.8,69.8,29.90,ENE,58,2.0,2.0,100,0.00,,,0.00,Wunderground v.1.15,2013-07-22 21:10:00,
2013-07-22 17:20:00,69.6,69.6,29.90,ENE,58,3.0,3.0,100,0.00,,,0.00,Wunderground v.1.15,2013-07-22 21:20:00,
2013-07-22 17:25:00,69.6,69.6,29.90,ENE,58,2.0,3.0,100,0.00,,,0.00,Wunderground v.1.15,2013-07-22 21:25:00,
2013-07-22 17:35:00,69.4,69.4,29.90,ENE,58,3.0,4.0,100,0.00,,,0.00,Wunderground v.1.15,2013-07-22 21:35:00,
2013-07-22 17:40:00,69.4,69.4,29.90,ENE,58,3.0,5.0,100,0.00,,,0.00,Wunderground v.1.15,2013-07-22 21:40:00,
2013-07-22 17:50:00,69.4,69.4,29.90,ENE,58,2.0,2.0,100,0.00,,,0.00,Wunderground v.1.15,2013-07-22 21:50:00,
2013-07-22 17:55:00,69.4,69.4,29.90,ENE,58,1.0,2.0,100,0.00,,,0.00,Wunderground v.1.15,2013-07-22 21:55:00,
2013-07-22 18:04:00,69.4,69.4,29.89,ENE,58,1.0,1.0,100,0.00,,,0.00,Wunderground v.1.15,2013-07-22 22:04:00,
2013-07-22 18:10:00,69.3,69.3,29.89,ENE,58,3.0,5.0,100,0.00,,,0.00,Wunderground v.1.15,2013-07-22 22:10:00,
2013-07-22 18:20:00,69.1,69.1,29.90,ENE,58,3.0,3.0,100,0.00,,,0.00,Wunderground v.1.15,2013-07-22 22:20:00,
2013-07-22 18:25:00,68.9,68.9,29.90,ENE,58,2.0,3.0,100,0.00,,,0.00,Wunderground v.1.15,2013-07-22 22:25:00,
2013-07-22 18:35:00,68.9,68.9,29.89,ENE,58,3.0,3.0,100,0.00,,,0.00,Wunderground v.1.15,2013-07-22 22:35:00,
2013-07-22 18:40:00,68.9,68.9,29.89,ENE,58,2.0,5.0,100,0.00,,,0.00,Wunderground v.1.15,2013-07-22 22:40:00,
2013-07-22 18:50:00,68.8,68.8,29.89,ENE,58,4.0,9.0,100,0.00,,,0.00,Wunderground v.1.15,2013-07-22 22:50:00,
2013-07-22 18:55:00,68.6,68.6,29.89,ENE,58,5.0,9.0,100,0.00,,,0.00,Wunderground v.1.15,2013-07-22 22:55:00,
2013-07-22 19:04:00,68.6,68.6,29.89,ENE,58,4.0,7.0,100,0.00,,,0.00,Wunderground v.1.15,2013-07-22 23:04:00,
2013-07-22 19:10:00,68.6,68.6,29.89,ENE,58,3.0,7.0,100,0.00,,,0.00,Wunderground v.1.15,2013-07-22 23:10:00,
2013-07-22 19:20:00,68.4,68.4,29.89,ENE,58,4.0,4.0,100,0.00,,,0.00,Wunderground v.1.15,2013-07-22 23:20:00,
2013-07-22 19:25:00,68.4,68.4,29.89,ENE,58,3.0,4.0,100,0.00,,,0.00,Wunderground v.1.15,2013-07-22 23:25:00,
2013-07-22 19:35:00,68.4,68.4,29.89,ENE,58,4.0,8.0,100,0.00,,,0.00,Wunderground v.1.15,2013-07-22 23:35:00,
2013-07-22 19:40:00,68.3,68.3,29.89,ENE,58,5.0,5.0,100,0.00,,,0.00,Wunderground v.1.15,2013-07-22 23:40:00,
2013-07-22 19:50:00,68.4,68.4,29.89,ENE,58,3.0,3.0,100,0.00,,,0.00,Wunderground v.1.15,2013-07-22 23:50:00,
2013-07-22 19:55:00,68.3,68.3,29.89,ENE,58,3.0,3.0,100,0.00,,,0.00,Wunderground v.1.15,2013-07-22 23:55:00,
2013-07-22 20:04:00,68.3,68.3,29.89,ENE,58,3.0,9.0,100,0.00,,,0.00,Wunderground v.1.15,2013-07-23 00:04:00,
2013-07-22 20:10:00,68.3,68.3,29.89,ENE,58,5.0,6.0,100,0.00,,,0.00,Wunderground v.1.15,2013-07-23 00:10:00,
2013-07-22 20:20:00,68.3,68.3,29.89,ENE,58,5.0,5.0,100,0.00,,,0.00,Wunderground v.1.15,2013-07-23 00:20:00,
2013-07-22 20:25:00,68.3,68.3,29.89,ENE,58,3.0,5.0,100,0.00,,,0.00,Wunderground v.1.15,2013-07-23 00:25:00,
2013-07-22 20:35:00,68.3,68.3,29.89,ENE,58,5.0,5.0,100,0.00,,,0.00,Wunderground v.1.15,2013-07-23 00:35:00,
2013-07-22 20:40:00,68.3,68.3,29.89,ENE,58,6.0,6.0,100,0.00,,,0.00,Wunderground v.1.15,2013-07-23 00:40:00,
2013-07-22 20:50:00,68.4,68.4,29.89,ENE,58,6.0,6.0,100,0.00,,,0.00,Wunderground v.1.15,2013-07-23 00:50:00,
2013-07-22 20:55:00,68.4,68.4,29.89,ENE,58,6.0,8.0,100,0.00,,,0.00,Wunderground v.1.15,2013-07-23 00:55:00,
2013-07-22 21:04:00,68.4,68.4,29.89,ENE,58,5.0,7.0,100,0.00,,,0.00,Wunderground v.1.15,2013-07-23 01:04:00,
2013-07-22 21:10:00,68.4,68.4,29.89,ENE,58,6.0,6.0,100,0.00,,,0.00,Wunderground v.1.15,2013-07-23 01:10:00,
2013-07-22 21:20:00,68.6,68.6,29.88,ENE,58,3.0,4.0,100,0.00,,,0.00,Wunderground v.1.15,2013-07-23 01:20:00,
2013-07-22 21:25:00,68.6,68.6,29.88,ENE,58,4.0,4.0,100,0.00,,,0.00,Wunderground v.1.15,2013-07-23 01:25:00,
2013-07-22 21:35:00,68.4,68.4,29.88,ENE,58,5.0,6.0,100,0.00,,,0.00,Wunderground v.1.15,2013-07-23 01:35:00,
2013-07-22 21:40:00,68.6,68.6,29.88,ENE,58,4.0,4.0,100,0.00,,,0.00,Wunderground v.1.15,2013-07-23 01:40:00,
2013-07-22 21:49:00,68.6,68.6,29.88,ENE,58,4.0,4.0,100,0.00,,,0.00,Wunderground v.1.15,2013-07-23 01:49:00,
2013-07-22 21:55:00,68.6,68.6,29.88,ENE,58,3.0,4.0,100,0.00,,,0.00,Wunderground v.1.15,2013-07-23 01:55:00,
2013-07-22 22:04:00,68.6,68.6,29.87,ENE,58,4.0,4.0,100,0.00,,,0.00,Wunderground v.1.15,2013-07-23 02:04:00,
2013-07-22 22:10:00,68.6,68.6,29.87,ENE,58,3.0,4.0,100,0.00,,,0.00,Wunderground v.1.15,2013-07-23 02:10:00,
2013-07-22 22:20:00,68.6,68.6,29.87,ENE,58,3.0,3.0,100,0.00,,,0.00,Wunderground v.1.15,2013-07-23 02:20:00,
2013-07-22 22:25:00,68.6,68.6,29.87,ENE,58,3.0,6.0,100,0.00,,,0.00,Wunderground v.1.15,2013-07-23 02:25:00,
2013-07-22 22:35:00,68.6,68.6,29.87,ENE,58,4.0,6.0,100,0.00,,,0.00,Wunderground v.1.15,2013-07-23 02:35:00,
2013-07-22 22:40:00,68.6,68.6,29.87,ENE,58,3.0,6.0,100,0.00,,,0.00,Wunderground v.1.15,2013-07-23 02:40:00,
2013-07-22 22:49:00,68.6,68.6,29.87,ENE,58,3.0,3.0,100,0.00,,,0.00,Wunderground v.1.15,2013-07-23 02:49:00,
2013-07-22 22:55:00,68.8,68.8,29.87,ENE,58,2.0,3.0,100,0.00,,,0.00,Wunderground v.1.15,2013-07-23 02:55:00,
2013-07-22 23:04:00,68.9,68.9,29.86,ENE,58,3.0,6.0,100,0.00,,,0.00,Wunderground v.1.15,2013-07-23 03:04:00,
2013-07-22 23:10:00,68.9,68.9,29.86,ENE,58,3.0,3.0,100,0.00,,,0.00,Wunderground v.1.15,2013-07-23 03:10:00,
2013-07-22 23:20:00,69.1,69.1,29.86,ENE,58,2.0,2.0,100,0.00,,,0.00,Wunderground v.1.15,2013-07-23 03:20:00,
2013-07-22 23:25:00,69.1,69.1,29.86,ENE,58,2.0,2.0,100,0.00,,,0.00,Wunderground v.1.15,2013-07-23 03:25:00,
2013-07-22 23:35:00,68.9,68.9,29.86,ENE,58,2.0,2.0,100,0.00,,,0.00,Wunderground v.1.15,2013-07-23 03:35:00,
2013-07-22 23:40:00,68.9,68.9,29.86,ENE,58,3.0,3.0,100,0.00,,,0.00,Wunderground v.1.15,2013-07-23 03:40:00,
2013-07-22 23:50:00,68.8,68.8,29.86,ENE,58,2.0,2.0,100,0.00,,,0.00,Wunderground v.1.15,2013-07-23 03:50:00,
2013-07-22 23:55:00,68.8,68.8,29.86,ENE,58,2.0,3.0,100,0.00,,,0.00,Wunderground v.1.15,2013-07-23 03:55:00,